Theta_e
310 311 311 312 313 310 311 313 318 312 311 311 310 311 312 312 313 311 308 306 304 302 303 301 300 298 298 297 297 298 298 298 297 296 295 295 295 294 293 293 293 292 292 292
311 310 311 312 311 312 311 311 310 311 312 311 311 311 311 315 312 309 305 304 302 300 300 300 299 298 297 296 296 296 296 296 295 294 294 293 293 293 292 292 292 292 292 293
315 310 312 315 313 312 311 310 311 314 313 312 311 311 312 313 309 306 303 303 300 299 298 298 298 297 297 296 296 295 294 294 294 294 293 292 292 291 292 292 292 292 292 292
314 312 317 310 309 310 311 311 310 311 311 311 311 310 309 307 307 303 300 301 299 298 297 297 297 297 296 296 295 294 294 293 293 292 292 290 291 291 291 292 292 291 291 291
314 314 312 316 311 311 314 319 312 311 311 310 310 312 312 303 300 299 298 299 297 296 296 295 296 295 295 295 294 294 293 292 292 291 291 291 291 290 291 291 290 290 289 288
313 314 314 313 314 312 312 323 315 310 312 313 314 321 320 302 297 296 297 297 296 295 295 295 294 294 294 293 292 292 291 291 291 291 291 290 290 290 290 290 289 289 288 288
313 313 311 308 308 309 320 322 315 313 313 314 316 313 306 298 297 297 297 296 295 295 295 294 293 293 292 291 291 291 291 291 291 291 291 291 291 291 290 289 288 286 286 286
313 312 313 307 312 317 317 313 311 311 312 313 312 303 300 299 299 298 297 296 295 295 294 293 293 291 291 290 291 291 292 291 291 291 291 290 290 287 286 285 285 284 284 284
311 312 308 308 312 311 310 310 310 311 310 310 308 303 300 299 299 297 296 295 294 294 294 293 292 291 291 291 291 291 292 291 291 290 287 285 285 285 284 284 284 284 283 283
312 312 310 310 310 309 309 310 308 308 307 308 308 306 301 299 297 296 295 295 294 294 293 292 292 292 292 291 291 292 290 289 286 285 284 284 284 284 284 284 284 283 283 283
312 311 311 311 311 311 310 309 307 306 306 307 307 305 302 299 298 297 295 294 294 294 293 292 292 292 292 292 292 290 287 286 285 284 284 283 283 283 283 282 283 283 283 283
311 310 312 312 310 308 309 310 308 307 306 306 306 305 302 299 298 297 296 295 295 295 293 293 293 293 292 290 290 287 286 285 284 284 285 285 286 286 285 284 284 283 283 282
311 309 309 309 308 305 306 305 304 304 304 306 305 304 302 299 296 297 297 296 296 295 295 294 293 293 291 290 287 286 285 285 284 284 285 285 284 285 285 283 282 282 281 281
305 306 309 308 309 304 303 302 301 302 303 303 304 303 302 300 297 297 295 295 296 295 295 293 293 293 290 290 287 286 285 284 284 284 284 283 282 281 281 281 281 280 279 280
303 302 303 303 303 304 302 299 300 302 303 303 302 301 301 300 299 296 295 294 294 295 294 293 293 291 290 289 286 285 285 284 283 282 281 281 280 280 280 280 280 279 279 278
300 300 300 302 303 302 303 301 300 300 300 301 301 300 300 300 298 295 294 292 293 294 294 293 292 291 290 289 286 285 284 284 283 281 282 280 280 280 280 279 279 279 279 278
300 302 301 301 301 301 301 301 302 301 299 298 299 299 299 299 296 294 293 293 293 293 293 292 292 291 290 290 286 285 284 283 282 281 281 280 280 280 279 279 279 279 278 277
296 297 298 298 299 299 300 300 300 301 300 298 297 297 297 296 295 294 292 291 291 293 293 293 292 290 289 289 286 285 284 283 282 281 280 280 279 279 279 278 278 278 278 277
297 297 297 297 297 298 299 300 300 300 301 299 297 296 296 295 295 293 291 290 290 290 291 292 292 290 289 288 286 285 284 283 281 280 280 280 280 278 278 278 278 278 278 277
295 294 294 295 296 296 293 293 294 298 299 296 295 295 294 294 293 291 290 290 291 291 291 291 291 288 288 287 285 285 284 283 281 280 280 280 279 279 278 278 278 278 277 277
293 293 293 293 293 294 293 292 292 293 292 293 293 293 292 291 291 291 289 290 290 290 292 292 291 289 286 285 285 284 283 282 280 280 280 280 278 278 278 278 277 277 277 276
292 292 291 291 292 292 291 291 291 290 290 290 291 291 290 289 289 289 290 290 289 290 291 290 290 290 286 285 284 284 283 282 281 280 280 279 279 278 278 278 278 277 276 276
290 290 290 290 290 290 290 290 289 290 290 290 289 289 289 289 288 288 288 289 290 289 290 290 291 291 285 284 284 284 283 281 281 280 280 279 279 278 278 278 277 277 276 276
288 289 289 289 289 289 289 287 289 289 287 288 289 289 289 288 288 288 289 290 290 289 290 290 290 289 285 284 284 283 282 281 280 280 280 279 278 278 277 277 277 277 276 276
286 287 287 287 288 288 287 286 287 288 288 288 288 287 287 288 288 288 289 288 289 288 289 290 290 285 285 284 283 283 282 281 281 280 280 279 278 278 277 277 277 277 276 276
284 285 284 284 286 285 286 288 287 287 287 287 287 288 287 285 285 285 285 286 286 287 288 286 285 285 285 284 283 282 282 281 280 280 280 279 278 277 277 277 277 277 277 276
282 283 283 282 282 283 285 287 287 287 286 286 286 286 286 287 287 287 285 284 285 285 285 284 285 285 285 285 283 282 281 281 280 280 279 278 277 277 278 277 277 277 277 277
Wind_Speed
3 2 2 3 5 10 6 3 4 2 4 6 3 7 5 4 2 1 2 2 4 5 4 7 6 7 9 11 11 9 10 11 11 10 11 12 13 13 13 12 13 13 14 15
2 2 5 5 7 10 12 11 11 8 14 10 8 4 4 1 1 1 2 3 4 5 3 7 5 6 8 7 8 9 8 11 11 12 11 13 15 15 18 18 17 17 21 22
0 2 3 5 9 12 8 8 11 9 7 3 7 5 4 3 2 2 2 2 3 3 4 5 3 5 4 6 6 6 8 11 12 13 14 13 14 16 20 21 21 24 25 25
0 2 2 3 2 3 11 5 12 8 10 10 9 7 2 2 4 3 3 3 4 4 5 4 4 5 4 5 6 8 11 13 12 14 15 15 18 22 23 22 23 24 23 22
2 2 4 2 3 4 4 2 11 13 13 11 7 3 4 4 2 3 3 4 6 6 6 7 6 5 5 5 6 9 12 13 12 14 17 19 22 23 23 24 24 25 22 20
1 2 2 2 2 2 2 2 2 8 7 5 0 5 1 8 6 5 5 5 7 7 7 6 5 7 8 8 8 11 13 15 16 17 19 20 19 21 22 23 23 22 20 16
3 3 3 2 2 1 3 5 1 3 6 5 4 2 7 8 6 7 7 8 8 7 6 6 7 10 12 11 13 14 17 19 18 18 19 19 20 19 19 17 16 15 13 11
3 3 4 4 3 3 3 1 4 5 4 4 1 6 8 7 8 8 9 8 7 7 7 8 9 12 15 14 14 17 20 21 20 18 18 17 17 14 13 12 12 10 9 8
5 2 2 2 1 1 3 3 2 3 2 3 6 7 9 8 8 7 9 9 9 9 10 8 9 12 15 14 17 20 21 17 15 13 12 11 11 11 10 8 7 6 5 5
2 3 8 7 6 4 1 1 2 2 3 3 5 9 9 9 8 8 10 10 10 10 10 11 11 13 16 17 15 13 14 13 12 12 11 10 8 8 7 5 5 5 4 4
5 9 9 4 5 1 4 4 2 2 4 4 6 10 11 10 10 11 12 12 11 12 12 13 15 15 13 12 12 13 13 12 11 10 10 10 8 6 6 5 4 4 4 3
5 4 3 3 1 4 6 8 6 3 4 4 7 10 11 10 13 14 15 15 14 15 15 15 16 15 13 11 12 13 13 11 9 9 8 8 8 9 10 9 7 6 4 2
1 1 4 8 7 3 5 5 4 5 5 4 7 10 14 9 14 15 17 17 17 18 17 17 16 14 12 12 12 11 11 11 9 8 7 7 6 6 6 4 5 4 2 2
1 2 5 2 1 8 7 6 4 3 3 5 7 11 13 14 16 16 17 19 18 18 18 17 16 15 14 16 15 13 12 12 9 8 7 6 5 4 4 3 3 2 2 0
4 2 5 8 8 7 5 3 4 5 4 5 8 12 15 15 16 17 15 16 20 19 18 18 16 15 17 17 16 15 13 11 10 8 7 6 5 4 3 2 2 2 2 3
3 5 7 7 5 7 6 5 7 6 5 5 8 12 15 15 15 18 20 21 20 21 21 20 19 19 21 20 18 15 12 12 11 9 8 7 5 4 4 3 3 3 3 4
3 4 3 8 7 8 10 9 9 8 4 6 10 11 13 14 15 17 21 25 23 19 20 21 21 23 23 22 21 16 13 14 12 10 8 7 6 5 4 4 4 4 4 5
5 8 8 9 10 11 12 12 12 13 9 12 11 12 14 15 12 17 19 23 23 22 25 25 24 25 24 23 21 17 15 13 13 11 9 8 6 6 5 4 4 5 5 6
5 6 8 9 11 10 9 10 15 15 14 13 12 15 17 17 16 17 20 22 22 20 26 26 24 25 24 24 23 20 17 16 15 12 10 8 7 6 5 5 5 5 6 6
5 7 8 9 10 7 8 10 12 12 10 10 11 11 11 13 16 18 21 22 24 22 24 28 27 24 23 24 23 21 19 17 15 13 11 9 8 7 6 6 6 6 7 8
6 7 7 8 8 9 8 9 8 5 2 6 9 10 10 11 16 17 16 13 20 26 25 30 29 27 24 25 24 22 20 18 16 14 13 10 9 8 7 7 8 8 9 9
6 7 9 9 7 8 10 9 7 4 0 2 5 7 9 10 14 15 17 16 20 25 25 31 31 31 27 26 25 23 22 20 18 15 14 12 11 9 9 8 9 9 10 10
6 6 7 9 9 8 9 10 9 6 3 2 4 7 9 11 13 10 6 15 17 26 27 30 32 31 27 26 26 25 23 21 19 17 14 13 12 11 10 9 10 11 11 12
6 6 8 7 6 7 7 13 10 6 4 3 3 5 8 8 10 15 12 10 19 25 28 29 30 28 25 28 26 25 24 22 20 17 15 13 12 12 12 11 12 12 13 14
5 6 7 8 7 7 9 11 9 7 5 4 3 3 5 7 8 8 14 10 18 24 25 26 26 26 28 28 27 26 24 22 19 17 15 14 13 12 12 13 13 13 13 14
5 5 5 5 4 6 7 9 8 8 7 6 5 5 5 7 8 7 12 13 17 22 24 25 28 29 31 29 27 25 23 21 19 17 15 14 13 12 13 13 13 13 14 16
3 5 6 5 5 7 8 9 8 9 9 8 7 7 7 8 9 10 8 12 15 19 21 23 24 26 30 28 26 24 22 20 18 16 15 14 13 12 13 13 14 15 16 17
Wind_Direction
92 105 171 211 204 195 205 187 218 88 197 168 260 295 300 323 130 116 124 95 84 68 68 65 37 31 37 35 32 37 55 58 56 53 52 61 63 63 67 78 87 98 101 101
128 162 215 227 211 210 221 228 248 257 284 270 273 287 281 34 160 194 121 96 82 79 65 68 44 37 44 41 43 49 67 67 65 63 62 68 73 80 88 89 94 102 97 90
74 319 285 253 232 203 191 210 217 221 234 273 284 300 291 242 223 181 137 98 101 107 78 73 61 59 60 59 68 78 81 77 76 80 73 71 82 86 96 101 104 99 97 102
24 260 238 62 338 217 213 221 215 246 257 268 284 303 179 196 201 163 139 140 129 121 110 101 89 78 78 81 89 91 79 77 78 78 86 91 99 102 105 108 106 106 103 101
280 252 324 164 150 156 179 61 217 232 262 279 299 147 209 162 107 138 154 144 127 119 119 103 101 100 102 100 102 96 89 81 84 96 103 105 105 106 110 112 108 104 100 93
148 269 224 74 67 187 243 130 99 205 262 284 192 258 178 159 142 143 151 145 130 123 118 128 119 120 113 108 104 94 95 102 107 109 111 107 109 111 112 113 110 107 107 102
228 277 273 222 258 191 261 128 46 266 281 277 244 340 117 135 148 149 145 135 119 126 138 126 121 118 111 109 98 104 109 110 113 113 115 116 116 117 117 110 106 100 95 87
197 235 265 157 129 220 43 78 306 296 281 271 147 132 147 153 153 152 140 135 141 141 119 109 112 118 113 104 116 119 117 116 115 114 114 114 112 111 108 107 104 103 102 96
220 234 48 188 299 311 292 296 304 282 295 281 169 170 166 166 157 155 157 152 150 139 127 114 116 125 116 119 125 121 118 115 113 111 109 111 113 113 111 112 115 118 119 115
259 199 236 259 286 282 221 250 215 250 277 203 202 175 168 163 162 167 164 160 151 147 139 132 133 130 129 134 130 125 121 121 121 118 115 111 108 110 115 117 115 110 104 96
247 270 272 257 219 35 336 244 199 226 237 229 194 181 171 172 175 171 167 162 162 152 146 141 143 140 142 142 145 140 132 129 126 121 117 110 98 96 99 85 101 108 96 101
253 266 281 232 229 341 315 306 328 264 224 209 194 180 176 175 177 171 167 165 164 157 153 155 152 152 154 158 159 151 140 138 134 130 129 126 121 106 86 95 88 89 77 84
242 52 273 287 306 49 330 320 306 254 229 205 199 189 182 170 181 179 170 168 173 168 165 163 162 160 162 165 164 158 149 146 146 144 145 143 137 137 139 117 108 98 85 75
213 275 249 207 300 319 307 293 287 265 246 222 204 191 185 177 177 186 186 176 171 171 169 170 168 169 173 174 172 169 163 162 157 161 164 165 170 175 181 202 218 227 277 182
177 338 298 301 298 303 288 285 266 255 243 224 203 194 190 185 186 187 189 181 173 174 176 176 176 177 178 179 179 176 172 173 171 169 169 170 169 168 167 181 212 251 295 304
270 292 290 274 299 306 308 285 264 264 246 234 212 204 203 201 190 181 185 188 180 184 184 182 183 184 184 183 183 182 183 184 179 172 171 176 180 183 188 206 232 255 271 281
298 287 287 293 296 298 291 287 278 270 240 220 224 212 198 195 181 179 187 194 195 196 190 187 187 188 189 189 187 184 179 180 183 182 183 188 194 197 199 217 239 254 266 270
255 274 274 274 282 287 286 281 275 270 247 235 224 201 189 182 192 190 187 188 196 206 208 203 197 192 193 192 192 190 185 179 185 190 193 196 199 200 208 225 243 259 271 277
304 298 296 289 287 282 277 278 277 271 262 238 203 203 198 199 195 188 182 182 190 196 208 210 203 201 196 197 195 193 191 190 190 194 198 197 199 211 220 234 252 266 275 278
340 329 316 311 314 308 304 303 293 272 254 216 202 190 190 191 185 181 185 194 201 203 203 197 196 203 202 198 200 196 195 195 195 197 199 200 209 216 228 248 256 265 271 272
348 338 333 335 333 338 340 337 331 316 243 191 189 191 192 193 195 187 182 196 203 205 204 197 195 196 204 198 199 199 198 199 200 202 204 208 216 220 234 247 256 263 270 273
351 347 343 344 349 350 355 352 356 357 353 184 194 193 181 182 190 195 207 205 204 205 201 200 198 195 203 199 201 199 201 205 205 208 210 214 222 227 238 247 257 261 269 275
348 348 348 356 353 353 8 11 8 360 334 263 222 212 206 205 201 184 209 211 213 204 201 203 202 196 202 200 203 203 204 207 210 213 215 221 227 233 241 251 261 268 271 276
352 357 358 354 4 14 11 355 357 5 358 322 256 235 219 207 219 222 226 229 210 202 203 204 200 195 191 205 205 205 207 211 214 217 220 227 233 239 246 256 264 271 275 280
353 350 360 4 10 2 348 350 354 360 350 339 302 267 249 241 236 257 220 222 206 199 203 201 194 194 196 207 206 208 211 214 218 221 225 232 238 242 254 262 270 275 279 282
351 350 346 350 351 342 344 351 354 350 346 336 314 278 247 234 236 249 216 216 204 200 203 198 193 192 204 208 208 209 212 216 220 225 232 238 243 248 259 268 275 279 281 285
340 346 345 352 5 357 349 351 356 347 341 329 309 302 270 246 231 223 219 215 205 207 210 199 196 198 208 210 211 212 213 217 222 228 236 242 247 256 266 273 280 283 286 290